Overview Statistics Trail Chart Weather Telemetry Raw packets
 

This is the latest recevied weather packets stored in our database for station/object KO4DYK. If no packets are shown the sender has not sent any weather packets the latest 10 day(s).

<< 32 33 34 35 36 37 38 >>
Time Temp. Humidity Pressure Rain* Wind** Luminosity Snow
1788442518 27.78° C 92% 1018.9 hPa 0 mm - 192 W/m² -
1788442213 26.67° C 94% 1018.9 hPa 0 mm - 164 W/m² -
1788441908 26.11° C 95% 1019.1 hPa 0 mm - 149 W/m² -
1788441603 25.56° C 96% 1018.8 hPa 0 mm - 99 W/m² -
1788441298 25° C 98% 1018.8 hPa 0 mm - 72 W/m² -
1788440996 25° C 99% 1018.8 hPa 0 mm - 69 W/m² -
1788440692 25° C 99% 1019 hPa 0 mm - 66 W/m² -
1788440391 24.44° C 99% 1019.1 hPa 0 mm - 63 W/m² -
1788440090 23.89° C 99% 1019 hPa 0 mm - 58 W/m² -
1788439791 23.89° C 99% 1019 hPa 0 mm - 55 W/m² -
1788439486 23.33° C 99% 1019.1 hPa 0 mm - 52 W/m² -
1788439184 23.33° C 99% 1019 hPa 0 mm - 46 W/m² -
1788438879 22.78° C 99% 1018.9 hPa 0 mm - 41 W/m² -
1788438579 22.78° C 99% 1018.8 hPa 0 mm - 37 W/m² -
1788438279 22.22° C 99% 1018.8 hPa 0 mm - 34 W/m² -
1788437978 22.22° C 99% 1018.9 hPa 0 mm - 30 W/m² -
1788437678 21.67° C 99% 1018.6 hPa 0 mm - 27 W/m² -
1788437374 21.67° C 99% 1018.9 hPa 0 mm - 23 W/m² -
1788437073 21.67° C 99% 1018.6 hPa 0 mm - 20 W/m² -
1788436772 21.67° C 99% 1018.8 hPa 0 mm - 17 W/m² -
1788436490 21.67° C 99% 1018.7 hPa 0 mm - 13 W/m² -
1788436166 21.67° C 99% 1018.6 hPa 0 mm - 10 W/m² -
1788435862 21.67° C 99% 1018.4 hPa 0 mm - 7 W/m² -
1788435557 21.67° C 99% 1018.4 hPa 0 mm - 5 W/m² -
1788435253 21.67° C 99% 1018.4 hPa 0 mm - 2 W/m² -

* Rain latest hour (hover to see other rain measurements)
** Current wind speed in m/s (hover to see current wind gust speed)